Regional Weather Roundup
Issued by NWS

Home | Current Version | Previous Version | Text Only | Print | Product List | Glossary Off
Versions: 1 2 3 4 5 6 7 8 9 10 11 12 13 14 15 16 17 18 19 20 21 22 23 24 25 26 27 28 29 30 31 32 33 34 35 36 37 38 39 40 41 42 43 44 45 46 47 48 49 50

699
ASUS43 KLOT 261412
RWRIL

ILLINOIS REGIONAL WEATHER ROUNDUP
NATIONAL WEATHER SERVICE CHICAGO/ROMEOVILLE IL
800 AM CST SUN FEB 26 2017

NOTE: "FAIR" INDICATES FEW OR NO CLOUDS BELOW 12,000 FEET WITH NO
SIGNIFICANT WEATHER AND/OR OBSTRUCTIONS TO VISIBILITY.

* THESE STATIONS ARE NOT UNDER NWS QUALITY CONTROL. THEY ALSO MAY NOT
  REPORT WEATHER SUCH AS PRECIPITATION OR FOG.

ILZ001-002-007-009-015-016-024-261500-
NORTHWEST ILLINOIS

CITY           SKY/WX    TMP DP  RH WIND       PRES   REMARKS
MOLINE         CLOUDY    33  17  51 S18       29.94S WCI  22
STERLING*      CLOUDY    32  20  61 VRB6      29.95S WCI  26
$$

ILZ003-004-008-010-011-017-018-261500-
NORTH CENTRAL ILLINOIS

CITY           SKY/WX    TMP DP  RH WIND       PRES   REMARKS
ROCKFORD       CLOUDY    30  19  63 S15       29.95F WCI  19
FREEPORT*      CLOUDY    29  20  68 S22       29.92S WCI  16
ROCHELLE*      CLOUDY    29  20  69 S16       29.97R WCI  17
DE KALB*       CLOUDY    28  20  71 S20G25    29.96F WCI  15
PERU*          CLOUDY    30  16  55 S17G24    30.01S WCI  18
$$

ILZ005-006-012>014-019>023-261500-
NORTHEAST ILLINOIS

CITY           SKY/WX    TMP DP  RH WIND       PRES   REMARKS
CHICAGO-OHARE  PTSUNNY   30  18  60 S15       29.99F WCI  19
CHICAGO-MIDWAY PTSUNNY   29  16  58 S14G21    30.02S WCI  18
AURORA         PTSUNNY   29  19  66 S14       30.00S WCI  18
LANSING*       PTSUNNY   26  22  84 S10       30.05S WCI  16
JOLIET*        CLOUDY    30  21  70 S7        30.04S WCI  23
WAUKEGAN       CLOUDY    28  18  66 S14       29.95F WCI  17
DUPAGE AIRPORT CLOUDY    29  18  63 S14       29.98F WCI  18
KANKAKEE*      PTSUNNY   28  20  71 S12       30.08R WCI  18
WHEELING       PTSUNNY   28  17  63 S13       30.00F WCI  17
MORRIS*        CLOUDY    29  20  71 S10       30.02S WCI  19
ROMEOVILLE*    CLOUDY    28  23  83 S15       30.02S WCI  16
NORTHERLY ISL    N/A     28  16  60 S12         N/A  WCI  18
$$

LMZ740>746-261500-
SOUTHERN LAKE MICHIGAN

STATION/POSITION SKY/WX   TEMP    WIND        PRES    VSBY  WAVE
                          AIR SEA DIR/SP/G                  HT/PER
                          (F)     (DEG/KT/KT) (MB)    (MI)  (FT/S)
HARRISON CRIB              29     190/ 21/ 22   N/A
BURNHAM HARBOR             29     180/ 11/ 13   N/A
CALUMET HARBOR             27     170/ 11/ 15 1016.4S
BURNS HARBOR               26     170/ 12/ 16 1017.6F
MICHIGAN CITY              26     130/ 14/ 16   N/A
$$

ILZ025>027-034>036-040-047-049-050-058-095>099-261500-
WEST-CENTRAL ILLINOIS

CITY           SKY/WX    TMP DP  RH WIND       PRES   REMARKS
QUINCY         PTSUNNY   32  16  51 S13       30.03S WCI  22
GALESBURG*     CLOUDY    31  20  63 S15       29.98S WCI  20
MACOMB*        MOSUNNY   32  17  55 S15       30.03S WCI  22
JACKSONVILLE*  MOSUNNY   31  17  54 S13       30.07S WCI  21
PITTSFIELD*    MOSUNNY   32  17  54 S5        30.07R WCI  27
$$

ILZ028>032-037-038-041>044-048-051>054-059>061-261500-
CENTRAL ILLINOIS

CITY           SKY/WX    TMP DP  RH WIND       PRES   REMARKS
PONTIAC        CLOUDY    31  18  60 S16       30.07R WCI  19
BLOOMINGTON    MOSUNNY   28  19  69 S15       30.07R WCI  16
DECATUR        CLOUDY    28  16  60 S13       30.11R WCI  17
PEORIA         PTSUNNY   30  17  58 S15       30.04S WCI  19
LACON*         CLOUDY    32  16  50 S16G22    30.02S WCI  21
LINCOLN*       PTSUNNY   29  19  66 S10       30.09R WCI  20
SPRINGFIELD    MOSUNNY   32  16  51 S15       30.09R WCI  22
TAYLORVILLE    MOSUNNY   31  17  57 S15       30.11R WCI  20
$$

ILZ033-039-045-046-055>057-062-063-261500-
EAST-CENTRAL ILLINOIS

CITY           SKY/WX    TMP DP  RH WIND       PRES   REMARKS
CHAMPAIGN      MOSUNNY   28  16  60 S16       30.11R WCI  16
RANTOUL*       PTSUNNY   29  20  69 S14       30.11R WCI  18
MATTOON        CLOUDY    29  19  66 S13       30.13R WCI  19
PARIS*         MOSUNNY   28  20  70 S10       30.16R WCI  19
$$

ILZ079-100>102-261500-
SOUTHWEST ILLINOIS

CITY           SKY/WX    TMP DP  RH WIND       PRES   REMARKS
ALTON          PTSUNNY   30  19  64 S12       30.13R WCI  21
BELLEVILLE     SUNNY     30  21  70 SE3       30.14R
CAHOKIA*       SUNNY     33  14  45 S6        30.14R WCI  28
SPARTA*        SUNNY     29  16  56 S8        30.16R WCI  21
$$

ILZ064>066-069>071-074>076-080>082-084>086-088>090-092>094-261500-
SOUTH-CENTRAL ILLINOIS

CITY           SKY/WX    TMP DP  RH WIND       PRES   REMARKS
CARBONDALE     SUNNY     30  20  66 SE7       30.18R WCI  23
CAIRO*         SUNNY     34  20  57 SE10      30.20R WCI  26
EFFINGHAM*     MOSUNNY   30  21  68 SE10      30.17S WCI  21
MARION         CLOUDY    32  19  59 SE6       30.19R WCI  26
MT. VERNON     MOSUNNY   27  20  75 SE9       30.17S WCI  18
CENTRALIA*     SUNNY     32  20  61 SE12      30.15R WCI  23
SALEM*         MOSUNNY   31  16  54 SE7       30.15S WCI  24
METROPOLIS*    SUNNY     32  25  74 CALM      30.21R
$$

ILZ067-068-072-073-078-083-087-091-261500-
SOUTHEAST ILLINOIS

CITY           SKY/WX    TMP DP  RH WIND       PRES   REMARKS
LAWRENCEVILLE  SUNNY     29  21  72 S9        30.21R WCI  20
FLORA*         SUNNY     29  21  70 S10       30.19R WCI  20
FAIRFIELD*     SUNNY     31  20  64 SE3       30.19R
HARRISBURG*    SUNNY     30  23  74 SE3       30.21R
ROBINSON*      SUNNY     29  20  69 S9        30.21R WCI  20
CARMI*         SUNNY     30  24  77 SE9       30.20S WCI  22
$$

ABBREVIATIONS USED IN REMARKS
   TC - TEMPERATURE IN CELSIUS
  WCI - WIND CHILL INDEX
   HX - HEAT INDEX
  VSB - VISIBILITY
$$





USA.gov is the U.S. government's official web portal to all federal, state and local government web resources and services.